Temperature
20 20 19 19 19 19 19 19 19 19 19 19 19 19 19 19 19 19 19 19 18 18 19 18 19 19 18 18 18 18 19 19 19 19 18 18 19 19 19 19 19 19 19
20 20 19 19 18 19 19 19 19 19 19 19 19 19 19 19 19 19 19 18 18 18 18 18 19 19 18 18 18 18 18 18 18 18 19 19 19 19 19 18 19 19 19
20 20 20 19 19 19 19 19 19 19 19 18 18 19 19 19 19 19 19 18 18 18 18 18 18 19 18 18 18 18 18 18 18 18 18 18 18 18 18 18 19 19 19
20 20 20 19 19 19 19 19 19 19 18 18 18 19 19 19 18 18 18 18 18 18 18 18 18 18 18 18 18 18 18 18 18 18 18 18 18 18 19 19 19 19 18
20 20 20 19 19 19 19 19 18 18 18 18 18 19 19 18 18 18 18 18 18 18 18 18 19 18 18 18 18 18 18 18 18 18 18 18 18 18 19 19 19 18 18
20 20 19 19 19 19 18 18 19 18 18 18 18 19 18 18 18 18 18 18 18 18 18 18 18 18 17 17 17 18 18 18 18 18 19 18 18 18 18 18 19 18 18
20 19 19 19 19 19 18 18 18 18 18 18 18 18 18 18 18 18 18 18 18 18 18 18 17 17 17 17 17 17 17 18 18 18 19 18 18 18 18 18 18 18 18
20 20 19 19 19 19 19 18 18 18 18 18 18 18 18 18 18 18 18 18 18 18 18 18 17 17 17 17 17 17 17 17 17 18 18 18 17 18 18 18 18 18 18
20 20 19 19 19 19 18 18 18 18 18 18 18 18 18 18 17 17 17 17 18 18 18 17 17 17 17 17 17 17 17 17 17 17 17 17 18 18 18 18 18 18 18
19 19 19 19 19 18 18 18 18 18 18 18 18 18 18 18 18 18 17 18 17 17 17 16 17 16 16 16 16 17 17 17 17 17 17 17 17 18 18 18 18 17 17
20 19 19 19 19 19 18 18 18 18 18 17 17 17 18 18 18 18 17 18 17 16 16 16 16 16 16 16 16 17 17 17 16 17 17 17 17 17 18 18 18 18 17
20 20 20 19 19 19 18 18 18 18 17 17 17 17 17 17 17 17 17 17 17 16 16 16 16 16 16 16 16 17 17 16 17 17 17 17 17 17 17 18 18 18 18
21 20 20 20 19 19 19 18 18 18 17 17 17 17 17 17 17 17 17 17 16 16 16 16 16 16 16 16 16 17 16 16 16 16 16 17 17 17 17 17 17 17 17
21 21 20 20 20 19 19 19 19 19 18 17 17 17 17 17 17 17 17 17 16 16 16 16 16 16 16 16 16 16 16 16 16 16 16 16 17 17 17 17 17 17 17
21 20 21 20 20 20 19 19 18 18 18 17 17 17 17 17 17 17 17 17 16 16 16 16 16 16 16 16 16 16 16 16 15 16 16 16 16 16 16 17 17 17 17
21 20 20 20 20 20 19 19 18 18 18 17 17 17 17 17 17 17 17 17 16 16 16 16 16 16 16 16 16 15 15 15 15 15 16 16 16 16 16 17 17 17 17
22 21 20 20 19 19 19 19 18 18 17 17 17 17 17 17 17 17 17 17 16 16 16 16 16 16 16 16 15 15 15 15 15 15 15 15 16 16 16 16 16 16 17
22 21 20 19 19 19 19 18 18 18 17 17 17 17 17 17 17 17 17 17 16 16 16 16 15 15 16 15 15 15 14 14 14 15 15 15 16 16 17 16 16 16 16
22 22 21 20 19 19 19 18 18 18 17 17 17 17 17 17 17 16 17 17 16 16 16 16 16 15 16 15 15 15 14 14 14 14 15 15 15 16 16 17 17 17 17
22 21 20 20 19 19 19 19 18 17 17 17 17 17 17 17 17 17 17 16 16 16 16 16 16 16 15 15 15 15 14 14 14 14 14 15 15 15 16 16 16 17 17
22 21 20 20 19 19 18 18 18 17 17 17 17 16 16 16 16 17 17 17 17 17 17 17 16 16 15 15 15 14 14 14 13 14 14 14 14 15 15 16 16 16 17
21 20 19 19 19 19 18 18 18 17 17 17 17 16 16 16 16 16 17 17 17 17 17 17 17 16 16 16 15 15 14 14 13 13 14 14 14 14 14 15 16 16 16
20 20 19 18 18 18 18 18 17 17 17 17 17 16 16 16 16 16 17 17 17 17 17 17 17 17 17 16 15 15 15 15 14 13 13 14 13 13 14 14 15 15 15
20 20 19 18 18 18 17 17 17 17 17 17 17 16 16 16 16 16 17 17 17 17 17 17 17 17 17 17 15 15 16 16 15 14 13 13 13 14 13 14 14 14 14
20 19 19 18 17 17 17 17 17 17 16 16 16 16 16 16 16 16 16 16 16 16 17 17 17 17 17 16 16 16 15 15 15 15 15 14 13 13 13 13 13 14 14
19 19 18 18 17 17 17 17 16 16 16 16 15 15 15 15 16 16 16 15 16 16 17 17 17 17 17 16 16 16 16 16 16 16 15 15 14 13 13 13 13 13 13
Wind_Speed
4 7 12 11 10 9 8 9 11 12 13 14 13 12 13 14 13 14 15 15 14 13 8 6 9 11 12 13 12 12 12 12 12 10 9 7 7 8 7 6 6 4 6
7 9 12 12 11 9 9 9 10 11 13 13 12 11 12 12 12 13 15 15 14 14 9 6 9 12 13 13 13 13 12 11 11 9 7 6 5 6 6 5 7 5 5
8 9 11 12 11 10 10 10 10 11 12 13 12 12 11 12 12 13 13 14 14 13 11 9 9 12 12 11 13 13 13 12 10 9 7 6 4 6 6 5 8 8 5
7 8 8 11 11 10 11 11 12 12 13 13 13 12 11 11 12 12 13 13 13 12 10 10 10 12 10 12 15 13 13 13 11 10 8 6 5 4 6 6 7 8 6
6 7 8 11 11 10 11 12 13 13 13 13 12 11 11 11 11 11 12 12 12 11 9 10 10 11 10 12 13 13 13 13 12 10 8 7 6 5 6 6 7 7 6
6 6 8 10 10 10 11 12 13 14 13 13 12 11 10 10 11 11 10 11 11 10 9 9 9 10 9 8 11 13 13 12 11 10 10 9 7 7 6 6 6 7 8
5 5 6 9 9 9 10 12 13 12 12 13 13 11 10 9 10 11 9 9 9 10 9 9 9 9 7 9 12 13 12 11 10 9 8 8 8 9 7 6 5 6 6
5 4 5 8 9 10 11 12 12 12 13 13 12 10 10 9 9 9 8 8 8 9 10 10 10 9 12 14 13 11 10 9 8 7 6 6 8 10 8 6 6 6 6
5 4 4 5 8 10 12 12 12 12 12 12 11 10 10 10 10 10 9 8 8 10 12 12 10 9 11 12 10 9 10 9 7 5 4 3 5 7 8 8 8 7 5
4 4 3 4 5 6 7 10 10 11 12 12 12 11 10 9 10 9 9 8 9 11 13 13 12 12 13 12 11 9 8 7 6 4 3 1 4 5 5 7 8 7 5
3 4 4 3 4 5 5 8 9 10 12 12 11 10 9 6 7 8 8 8 9 11 13 13 13 13 13 11 10 9 7 6 5 4 5 2 4 5 5 6 7 6 6
6 5 4 4 4 4 3 4 6 7 9 10 9 8 7 6 5 7 7 9 9 11 12 12 12 11 11 10 10 9 7 7 5 5 5 4 4 5 5 5 5 5 5
6 6 7 6 4 4 3 4 5 5 6 8 8 9 8 7 4 4 4 6 7 9 9 9 10 10 10 10 8 8 8 8 7 6 6 6 5 6 6 5 5 5 6
8 7 7 7 6 6 6 6 6 6 6 7 9 10 9 5 4 4 4 5 5 7 7 7 7 10 11 11 9 8 9 9 9 8 8 9 8 8 7 6 5 5 6
9 8 8 8 9 8 6 3 3 4 6 8 11 11 11 6 4 4 4 4 4 6 6 5 7 9 9 9 8 8 9 10 11 11 12 15 14 12 10 8 7 7 8
8 8 8 9 7 5 5 5 4 4 6 8 9 12 13 10 6 5 4 4 4 5 6 6 7 7 6 7 5 7 9 11 13 13 14 16 19 19 17 14 12 11 11
10 10 9 8 5 4 4 6 5 6 6 5 8 11 13 12 9 6 4 5 6 8 8 8 6 7 5 5 5 5 8 10 12 13 14 13 14 17 19 19 17 15 13
10 12 10 7 6 6 5 5 4 5 5 5 9 11 13 13 12 7 4 5 8 8 7 4 5 4 5 5 4 3 3 7 8 10 12 12 12 13 14 17 19 19 18
12 12 12 8 6 6 5 5 5 5 5 6 9 10 12 13 12 9 5 6 9 5 4 4 3 3 4 5 5 3 1 3 5 6 8 10 11 12 11 13 16 18 19
6 7 9 6 6 5 4 4 4 3 3 4 5 7 10 11 12 9 6 7 8 6 5 4 4 3 3 5 5 4 3 3 4 4 4 7 10 11 12 12 11 12 15
6 7 7 6 5 5 3 3 3 2 2 2 3 3 4 8 10 8 4 6 6 7 7 7 4 4 2 4 5 4 4 4 5 3 3 5 7 9 11 11 10 10 11
7 8 7 6 5 4 3 2 2 2 2 1 2 2 5 8 10 10 7 7 8 6 7 7 6 4 2 4 4 4 2 1 4 4 3 3 4 6 7 9 11 11 12
6 7 5 5 4 4 4 3 2 3 3 2 2 2 3 7 9 8 5 7 8 8 9 9 8 8 6 3 2 4 4 4 1 2 3 2 3 3 4 7 9 10 11
6 6 5 5 5 4 5 5 5 4 4 3 3 4 5 8 7 6 4 5 8 8 9 10 8 5 7 6 2 2 3 4 4 2 1 1 2 2 2 3 5 7 9
3 4 5 5 6 5 5 6 6 4 4 4 3 5 6 5 6 5 1 3 6 7 9 10 8 6 5 6 5 3 3 3 3 4 2 1 1 0 1 2 2 3 5
3 3 4 5 5 5 6 6 6 6 5 5 5 6 6 6 8 9 7 5 2 1 2 6 8 7 5 5 5 5 4 4 4 4 3 2 3 2 1 1 0 1 3
Wind_Direction
182 174 170 167 161 154 147 144 142 141 134 128 125 121 114 111 111 111 118 118 108 89 69 88 97 90 86 94 98 102 109 112 110 119 117 109 117 122 115 101 106 85 90
146 166 171 171 161 160 154 150 151 145 141 138 134 128 124 119 118 119 123 128 125 123 136 123 101 92 82 85 95 102 107 116 113 118 115 107 117 131 139 129 120 120 105
136 161 172 166 157 163 157 154 157 150 145 143 136 130 130 132 133 129 127 124 119 114 113 107 97 87 82 83 89 92 102 113 113 109 96 93 109 132 144 152 125 119 111
139 149 158 159 161 162 155 158 159 154 147 140 135 134 138 143 140 138 133 128 119 112 108 105 99 87 79 94 94 88 89 90 92 91 92 99 110 128 134 143 135 126 119
130 140 159 161 158 157 155 158 157 155 148 140 138 140 145 146 141 138 136 130 121 111 100 94 94 91 90 100 96 89 84 78 75 73 78 87 97 116 134 148 145 128 118
125 137 161 157 154 156 153 156 155 154 149 143 140 143 141 135 133 137 137 128 118 107 96 93 99 103 99 104 106 93 86 82 72 60 58 71 87 98 112 137 148 139 135
129 135 152 149 153 150 152 156 155 153 147 144 139 143 137 132 130 137 137 121 114 107 101 98 104 99 93 109 109 99 91 82 72 59 54 60 80 93 100 117 126 109 117
129 127 144 152 155 151 151 155 156 156 154 148 137 140 136 133 128 134 133 115 100 96 96 100 100 86 94 106 108 101 94 87 72 57 52 55 66 74 84 105 111 101 106
120 110 122 146 162 157 154 156 156 158 155 144 140 135 130 133 130 130 125 104 95 97 100 101 91 86 95 97 90 82 79 79 74 52 34 48 81 72 69 71 80 84 83
114 121 127 143 140 135 152 156 158 159 156 153 147 136 134 133 128 131 126 109 103 104 101 95 84 94 95 87 78 74 72 65 66 56 6 314 108 86 70 67 72 74 85
143 143 153 140 127 140 150 163 164 165 162 158 149 144 131 123 128 130 132 123 113 109 102 89 78 94 91 81 74 69 60 47 45 35 14 34 112 106 84 73 71 74 81
185 170 172 167 156 152 150 147 160 170 161 155 151 139 128 125 135 139 143 133 122 111 98 83 77 93 89 76 63 57 51 47 46 32 34 61 102 111 96 79 78 77 87
182 176 172 181 164 161 156 157 162 149 144 146 149 144 146 138 148 134 123 112 102 92 81 75 80 104 99 82 67 58 51 49 45 33 49 62 67 75 79 80 79 83 90
180 178 166 174 167 184 185 182 174 158 159 161 164 164 152 144 151 152 147 128 109 92 76 61 80 112 98 85 79 69 57 49 42 34 47 63 66 65 68 71 76 77 78
182 171 175 175 184 190 185 166 167 158 165 167 165 170 163 159 159 163 162 146 124 105 92 79 106 114 106 97 88 80 67 56 47 39 40 58 61 62 63 67 72 77 78
184 171 171 192 187 174 160 161 170 165 171 170 174 171 173 175 168 167 165 151 143 120 106 111 127 126 121 114 94 82 77 69 58 50 45 47 52 55 55 56 61 69 72
183 170 177 190 164 161 163 163 164 171 175 176 181 178 176 186 183 174 175 155 158 141 124 116 114 118 116 117 103 89 84 71 63 59 54 47 42 44 47 49 53 59 66
177 174 175 185 157 155 155 152 148 159 166 183 185 181 179 196 197 179 178 163 158 152 142 125 129 123 128 132 124 112 99 87 74 65 64 55 46 40 39 42 44 46 53
187 180 172 167 150 153 142 146 149 154 159 182 187 186 184 196 202 185 186 165 168 165 156 148 125 122 141 142 135 118 115 108 92 79 74 66 57 52 44 36 38 39 42
174 165 157 150 139 117 107 114 107 136 164 171 192 199 180 187 200 192 195 165 171 174 172 167 133 103 129 138 113 87 69 79 92 92 93 84 74 69 65 57 48 44 44
144 135 147 163 146 122 109 105 119 171 186 194 204 228 181 187 199 195 192 164 169 180 180 160 126 115 120 139 108 84 58 65 69 56 80 94 82 77 72 66 59 54 50
171 159 154 157 152 141 130 120 115 121 143 196 131 164 210 206 203 205 186 176 173 164 154 155 145 123 156 184 129 128 109 43 42 41 57 68 72 69 62 60 59 52 48
200 194 181 171 165 160 139 112 86 90 102 131 159 150 230 232 211 207 193 181 171 171 174 173 161 156 157 190 170 141 159 190 150 30 41 59 55 48 49 55 55 53 50
194 183 185 199 203 181 156 164 174 164 172 178 146 137 182 215 210 209 216 201 189 182 180 179 166 160 148 164 157 114 124 145 145 150 356 10 52 53 32 42 50 54 53
204 183 184 206 217 197 189 194 183 164 154 153 150 145 144 146 131 110 78 199 207 198 185 172 166 162 148 160 162 153 123 98 116 135 176 241 289 299 25 39 42 51 61
226 206 186 192 204 196 202 207 191 179 164 162 164 158 153 138 120 102 76 74 54 356 204 170 163 163 151 158 167 162 159 160 170 149 152 185 204 223 206 163 224 8 60
Height
1506 1508 1510 1512 1514 1516 1518 1519 1520 1522 1523 1524 1525 1526 1527 1527 1529 1530 1531 1532 1533 1534 1535 1535 1534 1533 1533 1534 1534 1534 1534 1535 1536 1537 1538 1538 1538 1539 1540 1540 1540 1540 1541
1506 1508 1510 1512 1514 1516 1517 1519 1520 1522 1524 1525 1526 1528 1528 1529 1530 1532 1532 1533 1534 1535 1537 1537 1535 1533 1534 1535 1534 1534 1535 1536 1537 1538 1538 1539 1540 1541 1541 1542 1542 1542 1542
1505 1507 1510 1513 1514 1516 1517 1519 1520 1522 1524 1526 1527 1529 1530 1530 1531 1532 1533 1534 1535 1536 1536 1536 1535 1534 1535 1536 1535 1536 1537 1537 1538 1539 1539 1540 1541 1541 1542 1543 1544 1543 1542
1506 1508 1509 1512 1514 1516 1518 1520 1521 1522 1524 1526 1527 1529 1530 1530 1532 1533 1533 1534 1535 1536 1536 1536 1536 1535 1536 1537 1537 1538 1538 1538 1539 1539 1540 1540 1541 1542 1542 1543 1544 1543 1543
1507 1508 1510 1512 1514 1516 1518 1520 1521 1524 1525 1526 1528 1529 1530 1531 1533 1534 1535 1535 1536 1536 1536 1536 1537 1537 1539 1539 1539 1539 1539 1540 1540 1541 1540 1541 1541 1542 1542 1542 1543 1543 1544
1508 1509 1511 1512 1514 1517 1518 1520 1522 1524 1525 1527 1528 1529 1531 1532 1533 1535 1536 1536 1536 1537 1537 1537 1538 1539 1541 1541 1541 1541 1541 1541 1541 1541 1541 1541 1542 1543 1543 1543 1543 1544 1545
1508 1509 1511 1513 1515 1517 1519 1520 1522 1525 1526 1527 1529 1530 1532 1533 1535 1535 1538 1538 1537 1537 1538 1539 1540 1541 1542 1542 1542 1543 1542 1542 1542 1542 1542 1542 1543 1543 1543 1543 1544 1544 1546
1509 1510 1512 1513 1515 1517 1519 1521 1522 1524 1526 1527 1529 1531 1533 1533 1535 1537 1538 1539 1539 1538 1538 1539 1541 1543 1543 1544 1544 1544 1544 1543 1542 1543 1542 1543 1544 1544 1544 1544 1544 1544 1546
1509 1510 1512 1513 1515 1517 1519 1520 1522 1524 1526 1528 1529 1531 1532 1534 1534 1537 1538 1540 1540 1540 1539 1540 1542 1545 1545 1545 1545 1545 1544 1543 1543 1543 1543 1544 1544 1544 1544 1545 1544 1545 1546
1509 1510 1511 1513 1515 1517 1520 1522 1523 1525 1527 1529 1530 1532 1533 1535 1536 1538 1539 1541 1542 1542 1542 1543 1545 1546 1546 1547 1547 1547 1545 1544 1544 1545 1545 1545 1545 1545 1545 1544 1544 1545 1546
1508 1510 1511 1513 1515 1517 1519 1522 1524 1526 1528 1530 1531 1532 1534 1536 1537 1538 1540 1542 1544 1544 1545 1546 1547 1548 1548 1548 1548 1547 1547 1545 1546 1546 1544 1545 1545 1545 1545 1544 1545 1546 1546
1509 1510 1511 1513 1516 1518 1520 1521 1523 1525 1527 1530 1531 1533 1535 1537 1539 1539 1541 1543 1544 1546 1547 1548 1548 1549 1550 1550 1549 1548 1548 1547 1547 1547 1546 1546 1547 1546 1546 1545 1546 1547 1546
1508 1509 1511 1513 1515 1517 1519 1521 1523 1524 1527 1530 1532 1533 1535 1537 1539 1540 1542 1543 1545 1547 1548 1550 1550 1551 1551 1551 1551 1549 1549 1549 1549 1549 1549 1548 1547 1546 1546 1546 1547 1547 1547
1506 1509 1511 1512 1513 1515 1517 1519 1521 1523 1526 1528 1531 1533 1535 1537 1539 1540 1542 1544 1547 1548 1550 1551 1552 1552 1552 1552 1553 1552 1552 1551 1551 1551 1550 1549 1548 1548 1547 1547 1548 1548 1548
1504 1507 1509 1511 1512 1513 1515 1518 1520 1522 1525 1526 1528 1531 1534 1536 1538 1539 1542 1544 1547 1549 1550 1552 1553 1553 1553 1554 1555 1555 1554 1553 1553 1553 1552 1551 1551 1551 1550 1549 1549 1549 1549
1504 1506 1508 1510 1511 1513 1514 1516 1519 1521 1523 1525 1527 1529 1532 1535 1538 1540 1542 1545 1548 1550 1551 1552 1554 1554 1554 1555 1556 1556 1555 1556 1555 1554 1554 1554 1553 1553 1552 1551 1551 1550 1549
1501 1504 1506 1509 1511 1512 1513 1515 1517 1519 1521 1523 1526 1528 1531 1534 1537 1540 1542 1544 1547 1550 1551 1553 1554 1555 1555 1556 1557 1558 1557 1557 1558 1557 1557 1557 1556 1555 1555 1555 1554 1552 1551
1500 1501 1504 1507 1509 1510 1511 1514 1516 1518 1519 1521 1524 1527 1529 1532 1535 1538 1541 1544 1547 1549 1551 1553 1554 1554 1555 1557 1558 1559 1559 1559 1560 1559 1559 1559 1559 1558 1558 1557 1556 1555 1554
1496 1497 1500 1503 1505 1506 1508 1512 1514 1516 1517 1519 1521 1524 1527 1530 1533 1536 1539 1543 1546 1548 1550 1552 1554 1555 1555 1557 1558 1559 1560 1560 1561 1561 1560 1561 1560 1560 1559 1559 1558 1557 1556
1492 1493 1495 1499 1503 1506 1508 1510 1511 1513 1515 1517 1518 1521 1524 1528 1532 1534 1537 1540 1543 1544 1547 1550 1553 1554 1556 1557 1559 1560 1560 1561 1561 1562 1562 1562 1562 1561 1561 1560 1559 1558 1558
1489 1489 1491 1494 1501 1504 1506 1507 1508 1511 1514 1516 1518 1520 1524 1527 1529 1532 1534 1537 1539 1541 1544 1547 1550 1553 1555 1556 1558 1560 1561 1561 1562 1562 1563 1563 1563 1562 1562 1561 1561 1560 1558
1487 1488 1489 1492 1497 1499 1502 1504 1505 1508 1510 1513 1514 1516 1520 1522 1524 1527 1530 1533 1536 1538 1541 1544 1547 1549 1552 1555 1557 1559 1561 1563 1562 1562 1563 1563 1564 1563 1563 1562 1562 1561 1560
1486 1487 1488 1491 1495 1497 1499 1501 1502 1504 1506 1509 1510 1511 1514 1517 1519 1521 1525 1529 1532 1535 1537 1540 1544 1547 1549 1552 1555 1557 1558 1559 1561 1562 1563 1563 1563 1563 1563 1563 1562 1562 1561
1485 1485 1486 1488 1491 1494 1497 1498 1499 1501 1503 1504 1505 1506 1508 1511 1514 1516 1521 1525 1528 1531 1534 1537 1541 1544 1547 1550 1552 1554 1557 1557 1558 1560 1562 1562 1562 1562 1563 1563 1562 1563 1562
1484 1484 1484 1486 1488 1490 1492 1494 1495 1496 1498 1499 1500 1501 1503 1505 1507 1509 1514 1518 1523 1527 1530 1534 1538 1541 1544 1547 1550 1552 1554 1555 1556 1558 1559 1561 1561 1561 1561 1561 1562 1562 1562
1483 1484 1484 1485 1487 1487 1489 1491 1492 1493 1494 1494 1495 1496 1497 1498 1500 1502 1507 1511 1515 1520 1525 1528 1533 1537 1541 1544 1547 1549 1551 1553 1554 1556 1557 1558 1559 1560 1560 1560 1561 1561 1561